Home   Weather   Chesapeake   Past weeks

Flag for USA Past Weather in Chesapeake, Virginia, USA — Yesterday and Last 2 Weeks

Now
24 °F

Clear.


Feels Like: 24 °F
Forecast: 20 / 41 °F
Wind: No wind

Location: Chesapeake Municipal Airport

Current Time: Dec 10, 2016 at 2:16:59 am

Latest Report: Dec 10, 2016 at 1:35 am


Visibility: 10 mi

Pressure: 30.47 "Hg

Humidity: 88%

Dew Point: 21 °F

Location of ChesapeakeLocation

Past Weather in Chesapeake — Graph

°F

Chesapeake Temperature Yesterday

Maximum temperature yesterday: 41 °F (at 2:15 pm)
Minimum temperature yesterday: 26 °F (at 6:15 am)
Average temperature yesterday: 33 °F

High & Low Weather Summary for the Past Weeks

 TemperatureHumidityPressure
High74 °F (Nov 30, 12:35 pm)100% (Nov 25, 4:55 am)30.45 "Hg (Nov 25, 4:55 am)
Low25 °F (Dec 10, 12:55 am)34% (Dec 1, 2:15 pm)29.55 "Hg (Dec 6, 6:15 pm)
Average48 °F77%30.08 "Hg
* Reported Nov 25 12:15 am — Dec 10 12:55 am, Chesapeake, Weather by CustomWeather, © 2016

Note: Actual official high and low records may vary slightly from our data, if they occured in-between our weather recording intervals... More about our weather records

Advertising

Chesapeake Weather History for the Previous 24 Hours

Scroll right to see more
 ConditionsComfort  
Time TempWeatherWind HumidityBarometerVisibility
12:55 am
Sat, Dec 10
25 °FClear.No wind84%30.45 "Hg10 mi
12:15 am29 °FClear.No wind65%30.45 "Hg10 mi
11:55 pm
Fri, Dec 9
29 °FClear.3 mph65%30.44 "Hg10 mi
11:15 pm26 °FClear.No wind83%30.45 "Hg10 mi
10:55 pm26 °FClear.No wind86%30.45 "Hg10 mi
10:35 pm27 °FClear.No wind73%30.45 "Hg10 mi
10:15 pm28 °FClear.No wind76%30.44 "Hg10 mi
9:55 pm29 °FClear.No wind65%30.44 "Hg10 mi
9:35 pm30 °FClear.No wind60%30.43 "Hg10 mi
9:15 pm30 °FClear.3 mph58%30.43 "Hg10 mi
8:55 pm30 °FClear.3 mph65%30.43 "Hg10 mi
8:35 pm30 °FClear.6 mph64%30.43 "Hg10 mi
8:15 pm30 °FClear.6 mph66%30.43 "Hg10 mi
7:55 pm32 °FClear.3 mph61%30.43 "Hg10 mi
7:35 pm31 °FClear.3 mph70%30.42 "Hg10 mi
7:15 pm31 °FClear.No wind64%30.42 "Hg10 mi
6:55 pm32 °FClear.5 mph62%30.42 "Hg10 mi
6:35 pm32 °FClear.3 mph66%30.41 "Hg10 mi
6:15 pm32 °FClear.5 mph62%30.40 "Hg10 mi
5:55 pm34 °FClear.6 mph50%30.40 "Hg10 mi
5:15 pm35 °FClear.3 mph48%30.39 "Hg10 mi
4:55 pm37 °FClear.5 mph41%30.38 "Hg10 mi
4:35 pm38 °FSunny.7 mph38%30.37 "Hg10 mi
4:15 pm39 °FSunny.9 mph37%30.37 "Hg10 mi
3:55 pm40 °FSunny.7 mph35%30.36 "Hg10 mi
3:35 pm40 °FSunny.12 mph35%30.35 "Hg10 mi
3:15 pm40 °FSunny.9 mph36%30.35 "Hg10 mi
2:55 pm41 °FSunny.12 mph35%30.34 "Hg10 mi
2:35 pm41 °FSunny.8 mph36%30.34 "Hg10 mi
2:15 pm41 °FSunny.10 mph35%30.33 "Hg10 mi
1:55 pm40 °FSunny.10 mph35%30.33 "Hg10 mi
1:35 pm41 °FSunny.12 mph35%30.33 "Hg10 mi
1:15 pm41 °FSunny.10 mph37%30.33 "Hg10 mi
12:55 pm40 °FSunny.8 mph36%30.33 "Hg10 mi
12:35 pm40 °FSunny.10 mph38%30.32 "Hg10 mi
12:15 pm41 °FSunny.12 mph40%30.33 "Hg10 mi
11:55 am39 °FSunny.12 mph41%30.33 "Hg10 mi
11:35 am39 °FSunny.13 mph40%30.34 "Hg10 mi
11:15 am39 °FSunny.12 mph42%30.35 "Hg10 mi
10:55 am38 °FSunny.10 mph43%30.36 "Hg10 mi
10:35 am37 °FSunny.13 mph44%30.36 "Hg10 mi
10:15 am38 °FSunny.13 mph46%30.36 "Hg10 mi
9:55 am37 °FSunny.10 mph50%30.36 "Hg10 mi
9:35 am36 °FSunny.13 mph50%30.35 "Hg10 mi
9:15 am35 °FSunny.9 mph53%30.35 "Hg10 mi
8:55 am35 °FSunny.10 mph54%30.34 "Hg10 mi
8:35 am33 °FSunny.8 mph60%30.33 "Hg10 mi
8:15 am32 °FSunny.5 mph64%30.32 "Hg10 mi
7:55 am30 °FSunny.5 mph70%30.32 "Hg10 mi
7:35 am29 °FSunny.3 mph70%30.31 "Hg10 mi
7:15 am26 °FSunny.No wind87%30.31 "Hg10 mi
6:55 am28 °FClear.No wind83%30.30 "Hg10 mi
6:35 am28 °FClear.No wind82%30.30 "Hg10 mi
6:15 am26 °FClear.No wind85%30.29 "Hg10 mi
5:55 am28 °FClear.No wind83%30.28 "Hg10 mi
5:35 am29 °FClear.No wind78%30.27 "Hg10 mi
5:15 am29 °FClear.No wind81%30.26 "Hg10 mi
4:55 am29 °FClear.No wind78%30.25 "Hg10 mi
4:35 am31 °FClear.No wind67%30.25 "Hg10 mi
4:15 am30 °FClear.3 mph74%30.24 "Hg10 mi
3:55 am29 °FClear.No wind80%30.23 "Hg10 mi
3:35 am31 °FClear.No wind69%30.23 "Hg10 mi
3:15 am31 °FClear.No wind76%30.22 "Hg10 mi
2:55 am32 °FClear.3 mph67%30.22 "Hg10 mi
2:35 am32 °FClear.5 mph67%30.22 "Hg10 mi
2:15 am33 °FClear.3 mph65%30.21 "Hg10 mi
Weather by CustomWeather, © 2016

See weather overviewHow to use our weather pages